Flag for Germany Weather past 2 weeks in Trier, Rhineland-Palatinate, Germany

Now
68 °F

Partly sunny.


Feels Like: 68 °F
Forecast: 45 / 68 °F
Wind: 5 mph from West

Location: Trier-Petrisberg


UV Index: 3 (Moderate)

Visibility: 25 mi


Pressure: 30.07 "Hg

Humidity: 46%

Dew point: 47 °F

Location of TrierLocation

Historic Weather in Trier

°F

Trier temperature yesterday

Maximum temperature yesterday: 63 °F (at 3:00 PM)
Minimum temperature yesterday: 45 °F (at 3:00 AM)
Average temperature yesterday: 53 °F

Past Weeks' High & Low Weather Summary

 TemperatureHumidityPressure
High69 °F (Apr 11, 5:00 PM)100% (Apr 22, 1:00 AM)30.43 "Hg (Apr 22, 1:00 AM)
Low34 °F (Apr 16, 6:00 AM)26% (Apr 17, 5:00 PM)29.59 "Hg (Apr 21, 4:00 PM)
Average51 °F67%30.06 "Hg
* Reported Apr 8 1:00 PM — Apr 23 1:00 PM, Trier, Weather by CustomWeather, © 2014

Note: Actual official high and low records may vary slightly from our data, if they occured in-between our weather recording intervals... More about our weather records

Advertising

Historic Weather Conditions — Data for Previous 24 hours

 ConditionsComfort  
Time TempWeatherWind HumidityBarometerVisibility
1:00 PM
Apr 23
66 °FScattered clouds.3 mph52%30.08 "Hg19 mi
12:00 PM64 °FPassing clouds.2 mph55%30.10 "Hg19 mi
11:00 AM58 °FPassing clouds.2 mph69%30.11 "Hg12 mi
10:00 AM54 °FPassing clouds.1 mph77%30.12 "Hg11 mi
9:00 AM49 °FPassing clouds.1 mph87%30.12 "Hg9 mi
8:00 AM45 °FPassing clouds.1 mph98%30.12 "Hg7 mi
7:00 AM44 °FPassing clouds.2 mph98%30.10 "Hg7 mi
6:00 AM45 °FPassing clouds.2 mph98%30.09 "Hg6 mi
5:00 AM46 °FOvercast.1 mph97%30.09 "Hg6 mi
4:00 AM46 °FOvercast.1 mph97%30.08 "Hg7 mi
3:00 AM47 °FOvercast.2 mph96%30.06 "Hg8 mi
2:00 AM47 °FPassing clouds.2 mph94%30.05 "Hg9 mi
1:00 AM49 °FClear.1 mph92%30.04 "Hg12 mi
12:00 AM50 °FClear.2 mph88%30.03 "Hg17 mi
11:00 PM
Apr 22
50 °FClear.1 mph91%30.02 "Hg11 mi
10:00 PM52 °FPassing clouds.2 mph78%30.00 "Hg34 mi
9:00 PM55 °FPassing clouds.2 mph75%29.97 "Hg22 mi
8:00 PM58 °FScattered clouds.3 mph72%29.94 "Hg25 mi
7:00 PM63 °FPartly sunny.2 mph52%29.91 "Hg19 mi
6:00 PM62 °FPartly sunny.2 mph56%29.90 "Hg19 mi
5:00 PM63 °FPartly sunny.3 mph56%29.90 "Hg19 mi
4:00 PM62 °FOvercast.2 mph53%29.90 "Hg12 mi
3:00 PM63 °FOvercast.2 mph63%29.90 "Hg11 mi
2:00 PM60 °FOvercast.3 mph68%29.90 "Hg9 mi
Weather by CustomWeather, © 2014

See weather overview